Skip Page Navigation
NASA JPL Caltech
NASA Logo - Jet Propulsion Laboratory + View the NASA Portal
+ Center for Near-Earth Object Studies
JPL Home Earth Solar System Stars & Galaxies Technology
JPL Solar System Dynamics
BODIES ORBITS EPHEMERIDES TOOLS PHYSICAL DATA DISCOVERY FAQ SITE MAP
IMPORTANT: The SSD Announcement email list is now available. Major changes are coming in the near future, including possible hostname and/or URL changes. To be notified of such changes, subscribe to this email list.

Please visit this page for more details.


JPL Small-Body Database Browser
Search: [ help ]  
48013 (2001 CB1)
Classification: Main-belt Asteroid          SPK-ID: 2048013
Ephemeris | Orbit Diagram | Orbital Elements | Mission Design | Physical Parameters | Discovery Circumstances | Close-Approach Data ]

[ show orbit diagram ]
Orbital Elements at Epoch 2458600.5 (2019-Apr-27.0) TDB
Reference: JPL 19 (heliocentric ecliptic J2000)
 Element Value Uncertainty (1-sigma)   Units 
e .0815596836126439 4.3313e-08  
a 2.359813489741699 1.0913e-08 au
q 2.167347848133517 1.0287e-07 au
i 5.083370963683445 4.0213e-06 deg
node 110.4101303518491 5.0218e-05 deg
peri 111.3042194402707 5.5981e-05 deg
M 295.4739045329245 2.5867e-05 deg
tp 2458837.827372764547
(2019-Dec-20.32737276)
9.5464e-05 TDB
period 1324.08219615321
3.63
9.1852e-06
2.515e-08
d
yr
n .2718864440937957 1.8861e-09 deg/d
Q 2.552279131349882 1.1803e-08 au
  Orbit Determination Parameters
   # obs. used (total)      832  
   data-arc span      7622 days (20.87 yr)  
   first obs. used      1998-05-22  
   last obs. used      2019-04-04  
   planetary ephem.      DE431  
   SB-pert. ephem.      SB431-N16  
   condition code      0  
   norm. resid. RMS      .59228  
   source      ORB  
   producer      Otto Matic  
   solution date      2019-Jul-13 02:44:41  

Additional Information
 Earth MOID = 1.16457 au 
 Jupiter MOID = 2.42892 au 
 T_jup = 3.542 
[ show covariance matrix ]

Ephemeris | Orbit Diagram | Orbital Elements | Mission Design | Physical Parameters | Discovery Circumstances | Close-Approach Data ]

Physical Parameter Table
Parameter Symbol Value Units Sigma Reference Notes
absolute magnitude H 15.8   n/a MPO436118  

48013 (2001 CB1)          Discovered 2001-Feb-01 by LINEAR at Socorro
Reference: 20020921/Numbers.arcLast Updated: 2004-04-19

[ hide close-approach data ]
Close-Approach Data   ...sorted by Date/Time (TDB)
Date/Time (TDB) Time Uncertainty
(days_HH:MM)
Body Nominal Distance (au) Minimum Distance (au) Maximum Distance (au) V-relative (km/s) V-infinity (km/s) JD (TDB) Time Uncertainty (minutes) Semi-major axis (km) Semi-minor axis (km) range-LOV angle (deg) N-sigma BP Orbit Ref. Reference Modified
2124-Feb-04 06:45 < 00:01 Eunom 0.0499454994394122 0.0499298126526241 0.0499611902352308 7.62633056110287 7.6263305242491 2496868.781184535 0.876056712371602 1053.96593658887 42.2310963656106 42.1319083817321 118768.159554312 T 19 CATAB v2.0e-lin.ifort 2019-Jul-13 02:44:45 2019-Jul-13 02:44

Alternate Designations
 2001 CB1 = 1998 KA38 
Ephemeris | Orbit Diagram | Orbital Elements | Mission Design | Physical Parameters | Discovery Circumstances | Close-Approach Data ]
ABOUT SSD CREDITS/AWARDS PRIVACY/COPYRIGHT GLOSSARY LINKS
FirstGov 2019-Dec-14 10:57 UT
(server date/time)  
NASA Home Page
Site Manager:   Ryan S. Park
Webmaster  Alan B. Chamberlin